[[{"header":{"parameterUnit":"m.s-1","parameterCategory":1,"la1":30.2991,"la2":30.254,"lo1":-89.0895,"lo2":-89.0444,"dy":0.0017,"dx":0.0017,"nx":28,"ny":28,"refTime":"2025-08-10T03:00:00:Z","depth":0,"parameterNumber":2,"parameterNumberName":"U-component_of_WINDS"},"data":[0,0,0,0,0,0,0,0,0,0,0,0,0,0,0,0,0,0,0,0,0,0,0,0,0,0,0,0,0,0,0,0,0,0,0,0,0,0,0,0,0,0,0,0,0,0,0,0,0,0,0,0,0,0,0,0,0,0,-3.9022,-3.9022,0,-3.9048,-3.9049,-3.9049,-3.8958,-3.8955,-3.8953,-3.895,-3.8979,-3.8982,-3.8985,0,0,0,0,0,0,0,0,0,0,0,0,0,-3.8895,-3.8898,-3.9022,-3.9022,-3.9022,-3.9048,-3.9049,-3.9049,-3.8959,-3.8955,-3.8952,-3.8949,-3.8978,-3.8981,-3.8985,0,0,0,0,0,0,0,0,0,0,0,0,0,-3.8939,-3.8899,-3.9022,-3.898,-3.8977,-3.9048,-3.9049,-3.9049,-3.8959,-3.8955,-3.8951,-3.8947,-3.8976,-3.8981,-3.8986,-3.9099,0,0,-3.9001,-3.9003,0,0,0,0,0,0,0,0,-3.8937,-3.8944,-3.8986,-3.8983,-3.8979,-3.8996,-3.9015,-3.9066,-3.896,-3.8966,-3.895,-3.8945,-3.8988,-3.8991,-3.9005,-3.91,-3.9101,-3.9002,-3.9005,-3.9007,-3.9008,0,0,0,0,0,0,0,-3.8934,-3.8942,-3.9032,-3.8987,-3.8983,-3.8961,-3.8963,-3.9024,-3.9,-3.8965,-3.8959,-3.8963,-3.8985,-3.9001,-3.9006,-3.9102,-3.9001,-3.9006,-3.9009,-3.9011,-3.9293,-3.9297,0,0,0,0,0,0,-3.8936,-3.894,-3.9031,-3.9033,-3.8948,-3.8967,-3.8969,-3.8995,-3.8999,-3.8995,-3.8966,-3.8959,-3.8994,-3.9,-3.9006,-3.914,-3.9007,-3.9011,-3.9014,-3.9289,-3.9294,-3.9299,0,0,0,0,0,0,-3.8934,-3.8945,-3.903,-3.8985,-3.8994,-3.8974,-3.9003,-3.8997,-3.9013,-3.9,-3.8995,-3.8987,-3.8991,-3.8999,-3.9077,-3.914,-3.9014,-3.9018,-3.9283,-3.929,-3.9297,-3.9408,0,0,0,0,0,0,-3.893,-3.8945,-3.8986,-3.8987,-3.8997,-3.91,-3.9007,-3.9001,-3.9022,-3.9012,-3.9018,-3.9015,-3.8989,-3.907,-3.9082,-3.9144,-3.9022,-3.9278,-3.9286,-3.9294,-3.9398,-3.9418,-3.9434,0,0,0,0,0,-3.8926,-3.9016,-3.8989,-3.9,-3.9048,-3.9104,-3.911,-3.9078,-3.9027,-3.907,-3.9062,-3.9014,-3.9131,-3.9079,-3.9091,-3.9156,-3.9273,-3.9284,-3.9294,-3.939,-3.9414,-3.9434,0,0,0,0,0,0,-3.9023,-3.9015,-3.8985,-3.9077,-3.9092,-3.9088,-3.914,-3.9103,-3.9133,-3.9122,-3.9082,-3.9084,-3.917,-3.917,-3.9112,-3.9267,-3.9194,-3.9207,-3.9263,-3.9285,-3.9302,-3.93,-3.9026,0,0,0,0,0,-3.9056,-3.9101,-3.9091,-3.9174,-3.9183,-3.9161,-3.9184,-3.9158,-3.9172,-3.9177,-3.9175,-3.919,-3.9231,-3.9258,-3.9294,-3.9399,-3.9399,-3.945,-3.9467,-3.9482,-3.9494,-3.9551,-3.9574,-3.9332,-3.9332,-3.9332,0,0,-3.9123,-3.9124,-3.9154,-3.9194,-3.9202,-3.925,-3.9167,-3.9221,-3.9257,-3.9186,-3.9259,-3.9258,-3.9273,-3.9366,-3.9406,-3.9369,-3.9561,-3.9495,-3.9507,-3.951,-3.9564,-3.9587,-3.9607,-3.9339,-3.9338,-3.9337,0,0,-3.927,-3.9275,-3.9345,-3.9355,-3.9369,-3.9354,-3.9372,-3.9374,-3.9371,-3.9444,-3.9393,-3.9436,-3.9505,-3.9519,-3.9535,-3.9691,-3.9649,-3.9704,-3.9796,-3.9853,-3.9872,-3.9888,-3.9945,-3.9966,-3.9716,-3.9716,-3.9716,0,-3.9351,-3.9421,-3.9386,-3.9444,-3.9464,-3.9403,-3.9475,-3.9487,-3.9512,-3.9528,-3.9486,-3.9574,-3.958,-3.9675,-3.9714,-3.9728,-3.9748,-3.9702,-3.9872,-3.9888,-3.9903,-3.9957,-3.9978,-3.9722,-3.9722,-3.9721,-3.972,0,-3.9522,-3.9571,-3.9627,-3.9653,-3.9679,-3.9744,-3.972,-3.9751,-3.9725,-3.9715,-3.9792,-3.9797,-3.9834,-3.9855,-3.9829,-3.9948,-3.9925,-3.9878,-3.9804,-3.9933,-3.9983,-4.0004,-3.9732,-3.9729,-3.9728,-3.9726,0,0,-3.9728,-3.9736,-3.9757,-3.977,-3.9782,-3.982,-3.9884,-3.992,-3.9949,-3.9969,-4.0022,-4.0084,-4.0042,-4.006,-4.0036,-4.0086,-4.0211,-4.0033,-4.0033,-4.0067,-4.0344,-4.0379,-4.0404,-4.0184,-4.0188,-4.0191,-4.0343,0,-3.9873,-3.9981,-3.9953,-4.0061,-4.0107,-4.0052,-4.0107,-4.0122,-4.0116,-4.0155,-4.0148,-4.0193,-4.0133,-4.0145,-4.0191,-4.0186,-4.0266,-4.0174,-4.0234,-4.0236,-4.0232,-4.0429,-4.0466,-4.061,-4.0363,-4.0366,-4.0368,0,-4.0056,-4.0084,-4.0197,-4.0204,-4.0223,-4.0273,-4.0306,-4.0344,-4.0361,-4.0353,-4.0375,-4.0341,-4.0406,-4.0332,-4.0421,-4.0359,-4.0382,-4.0384,-4.0389,-4.0393,-4.031,-4.044,-4.0655,-4.0677,-4.0398,-4.0396,-4.0394,0,-4.0196,-4.0263,-4.034,-4.0352,-4.0362,-4.0399,-4.0405,-4.0417,-4.0442,-4.0471,-4.0487,-4.0524,-4.0544,-4.0574,-4.0551,-4.0499,-4.0645,-4.0568,-4.0641,-4.0642,-4.0673,-4.0672,-4.0896,-4.0689,-4.0688,-4.0688,-4.0687,0,-4.0361,-4.0433,-4.0403,-4.045,-4.053,-4.0498,-4.0578,-4.0577,-4.059,-4.0637,-4.0591,-4.0637,-4.0605,-4.0648,-4.0632,-4.0709,-4.0718,-4.0714,-4.0709,-4.0719,-4.0719,-4.0733,-4.0722,-4.0693,-4.0692,-4.0691,-4.069,0,-4.0531,-4.0514,-4.0594,-4.0598,-4.0601,-4.0659,-4.0663,-4.0708,-4.0699,-4.076,-4.0772,-4.0759,-4.0808,-4.0789,-4.0841,-4.083,-4.0929,-4.0911,-4.0924,-4.0919,-4.0993,-4.0987,-4.1234,-4.1265,-4.1038,-4.104,-4.1042,0,-4.0637,-4.0691,-4.0701,-4.073,-4.0739,-4.0786,-4.0811,-4.0783,-4.0812,-4.0836,-4.0879,-4.0924,-4.0958,-4.104,-4.1035,-4.1076,-4.1058,-4.1142,-4.1064,-4.1072,-4.106,-4.1058,-4.1063,-4.1158,-4.116,-4.1162,-4.1164,0,-4.0828,-4.0817,-4.0855,-4.0892,-4.0924,-4.0952,-4.0975,-4.1001,-4.0975,-4.101,-4.106,-4.1087,-4.1141,-4.1187,-4.1224,-4.1231,-4.1194,-4.1189,-4.1208,-4.1218,-4.1224,-4.1223,-4.0967,-4.1183,-4.1181,-4.118,-4.1179,-4.1178,-4.0969,-4.1015,-4.1031,-4.1076,-4.1091,-4.1115,-4.1157,-4.1155,-4.1196,-4.1238,-4.1219,-4.1278,-4.1295,-4.1341,-4.1354,-4.14,-4.1367,-4.1395,-4.1402,-4.1409,-4.1419,-4.1217,-4.1406,-4.1406,-4.1405,-4.1405,-4.1404,0,-4.1158,-4.1166,-4.1208,-4.1243,-4.1279,-4.1242,-4.1267,-4.13,-4.1351,-4.1371,-4.1407,-4.1466,-4.1511,-4.1512,-4.1554,-4.1591,-4.1576,-4.1603,-4.16,-4.1603,-4.1445,-4.1425,-4.1615,-4.1615,-4.1615,-4.1615,-4.1615,-4.1615,-4.126,-4.1337,-4.133,-4.1415,-4.1422,-4.1479,-4.1497,-4.1519,-4.1535,-4.1603,-4.1641,-4.1641,-4.1653,-4.1697,-4.1738,-4.1737,-4.1755,-4.1789,-4.1782,-4.1635,-4.1614,-4.1594,-4.1574,-4.1793,-4.1794,-4.1936,-4.1937,-4.1938]},{"header":{"parameterUnit":"m.s-1","parameterCategory":1,"la1":30.2991,"la2":30.254,"lo1":-89.0895,"lo2":-89.0444,"dy":0.0017,"dx":0.0017,"nx":28,"ny":28,"refTime":"2025-08-10T03:00:00:Z","depth":0,"parameterNumber":3,"parameterNumberName":"V-component_of_WINDS"},"data":[0,0,0,0,0,0,0,0,0,0,0,0,0,0,0,0,0,0,0,0,0,0,0,0,0,0,0,0,0,0,0,0,0,0,0,0,0,0,0,0,0,0,0,0,0,0,0,0,0,0,0,0,0,0,0,0,0,0,1.3248,1.3248,0,1.3201,1.32,1.3199,1.3217,1.3218,1.322,1.3221,1.3164,1.3161,1.3159,0,0,0,0,0,0,0,0,0,0,0,0,0,1.3349,1.3347,1.3249,1.3248,1.3247,1.3201,1.32,1.3199,1.3217,1.3218,1.322,1.3221,1.3164,1.3161,1.3158,0,0,0,0,0,0,0,0,0,0,0,0,0,1.3304,1.3347,1.3249,1.3251,1.3251,1.3201,1.32,1.3199,1.3217,1.3219,1.322,1.3222,1.3165,1.3162,1.3158,1.3101,0,0,1.3146,1.3144,0,0,0,0,0,0,0,0,1.3306,1.33,1.3251,1.3251,1.325,1.3217,1.3215,1.3166,1.3216,1.3229,1.3221,1.3223,1.3179,1.3175,1.3162,1.3098,1.3096,1.3146,1.3143,1.3142,1.3141,0,0,0,0,0,0,0,1.3309,1.3302,1.3229,1.325,1.325,1.3252,1.3247,1.3205,1.3195,1.3228,1.323,1.3224,1.3179,1.3165,1.316,1.3095,1.3146,1.3143,1.314,1.3139,1.2982,1.298,0,0,0,0,0,0,1.3314,1.3304,1.3231,1.3228,1.3283,1.3249,1.3244,1.3226,1.3196,1.3193,1.3223,1.3225,1.3171,1.3165,1.3158,1.3089,1.3142,1.3138,1.3136,1.2984,1.2982,1.298,0,0,0,0,0,0,1.3316,1.3307,1.3233,1.3267,1.3257,1.3246,1.3225,1.3224,1.321,1.3192,1.3189,1.3211,1.3172,1.3164,1.3116,1.3088,1.3137,1.3133,1.2986,1.2983,1.2981,1.2951,0,0,0,0,0,0,1.3318,1.3308,1.3287,1.3266,1.3256,1.3192,1.3223,1.3222,1.3204,1.3207,1.318,1.3177,1.3173,1.3121,1.3112,1.3083,1.313,1.2989,1.2985,1.2982,1.2954,1.2948,1.2942,0,0,0,0,0,1.3322,1.3279,1.3286,1.3277,1.323,1.3191,1.3185,1.3183,1.3202,1.318,1.3169,1.3177,1.3093,1.3116,1.3106,1.3075,1.299,1.2986,1.2982,1.2957,1.2949,1.2942,0,0,0,0,0,0,1.3293,1.3276,1.3284,1.3233,1.3214,1.3194,1.3166,1.3174,1.3147,1.315,1.3148,1.3141,1.3092,1.3079,1.3105,1.3019,1.3044,1.3038,1.3029,1.3021,1.3015,1.3018,1.3127,0,0,0,0,0,1.3282,1.3254,1.3239,1.3195,1.3186,1.3178,1.3161,1.3162,1.3141,1.3132,1.3117,1.3094,1.3062,1.3041,1.3011,1.2954,1.2947,1.2928,1.2921,1.2916,1.291,1.2878,1.2869,1.2966,1.2966,1.2966,0,0,1.3256,1.3243,1.3225,1.3189,1.3175,1.3144,1.3171,1.3136,1.3113,1.3126,1.308,1.3068,1.3042,1.299,1.2965,1.2977,1.2882,1.2911,1.2907,1.2903,1.2873,1.2864,1.2856,1.2963,1.2964,1.2964,0,0,1.3193,1.3181,1.3144,1.3129,1.3108,1.3104,1.3095,1.3075,1.3068,1.3023,1.3032,1.3003,1.2949,1.293,1.2913,1.2846,1.2853,1.2837,1.2802,1.2772,1.2764,1.2757,1.2732,1.2724,1.2831,1.2831,1.2831,0,1.3163,1.3119,1.3123,1.3089,1.3072,1.3086,1.3047,1.3032,1.3001,1.2988,1.3003,1.2936,1.2919,1.2862,1.2847,1.2833,1.2821,1.2838,1.2766,1.2759,1.2752,1.2728,1.2719,1.2829,1.2829,1.2829,1.2829,0,1.3083,1.3052,1.3024,1.2997,1.2977,1.2941,1.2937,1.2917,1.292,1.2914,1.2867,1.2849,1.2815,1.2802,1.2804,1.2745,1.2753,1.2767,1.2792,1.2741,1.2719,1.2709,1.2826,1.2827,1.2827,1.2828,0,0,1.2997,1.2975,1.2965,1.2953,1.2931,1.2907,1.2871,1.2841,1.2823,1.2801,1.277,1.2725,1.2738,1.2719,1.2719,1.2693,1.264,1.2709,1.2708,1.2696,1.2573,1.2562,1.2552,1.2645,1.2644,1.2642,1.2575,0,1.2932,1.2872,1.2875,1.2817,1.2788,1.2802,1.2771,1.2753,1.2746,1.2719,1.2711,1.2679,1.2699,1.2688,1.2663,1.2652,1.2615,1.2657,1.2613,1.2612,1.2618,1.254,1.2528,1.2465,1.2566,1.2565,1.2564,0,1.2847,1.2826,1.2766,1.2751,1.2739,1.271,1.2684,1.2659,1.2639,1.2636,1.2617,1.2621,1.2583,1.2611,1.2557,1.2586,1.2569,1.2561,1.2558,1.2552,1.2583,1.253,1.2445,1.2435,1.255,1.2551,1.2552,0,1.279,1.2747,1.2705,1.2695,1.2675,1.2655,1.2646,1.2628,1.261,1.2587,1.2575,1.2546,1.2529,1.2506,1.2503,1.2524,1.2448,1.2476,1.2443,1.2443,1.2424,1.2425,1.2333,1.2416,1.2416,1.2417,1.2417,0,1.2716,1.2678,1.268,1.2654,1.2612,1.2616,1.2574,1.2566,1.255,1.2522,1.2532,1.2505,1.2503,1.2474,1.2471,1.2426,1.2419,1.2414,1.2413,1.2412,1.2413,1.2399,1.2403,1.2414,1.2415,1.2415,1.2415,0,1.2644,1.2644,1.2599,1.2586,1.2582,1.2551,1.2539,1.2513,1.2509,1.2473,1.2465,1.2457,1.2424,1.2419,1.2379,1.2378,1.2324,1.2328,1.2331,1.2331,1.2298,1.2301,1.2193,1.2178,1.2272,1.2271,1.2271,0,1.2596,1.2568,1.2552,1.2536,1.2526,1.2498,1.2481,1.2484,1.2465,1.2442,1.2419,1.2388,1.2363,1.231,1.2299,1.2269,1.2272,1.2236,1.2267,1.2267,1.2269,1.2271,1.2267,1.2229,1.2228,1.2227,1.2227,0,1.251,1.2512,1.2488,1.2465,1.2445,1.2426,1.2408,1.2393,1.2393,1.2372,1.234,1.2321,1.2283,1.2251,1.2222,1.221,1.2217,1.2218,1.2208,1.2206,1.2208,1.2205,1.2313,1.2219,1.222,1.2221,1.2221,1.2221,1.2447,1.2423,1.2409,1.2382,1.237,1.2354,1.233,1.2324,1.2298,1.2269,1.2272,1.2237,1.2218,1.218,1.2166,1.2137,1.2148,1.2135,1.2131,1.2127,1.2123,1.2215,1.2132,1.2132,1.2132,1.2132,1.2132,0,1.2361,1.2353,1.2329,1.2305,1.2284,1.2298,1.2279,1.2259,1.2229,1.2212,1.2189,1.2152,1.2122,1.211,1.208,1.2059,1.2062,1.2051,1.2052,1.2049,1.2116,1.2126,1.205,1.205,1.205,1.205,1.205,1.205,1.2313,1.2273,1.2274,1.2228,1.222,1.2187,1.2175,1.216,1.2147,1.2106,1.2083,1.2076,1.2061,1.2031,1.2003,1.2,1.1988,1.1975,1.1974,1.2036,1.2044,1.2052,1.2062,1.1973,1.1973,1.1909,1.1908,1.1908]}]]